Weather History for Suffolk, VA

Change the Weather History Date:

Monday, January 21, 2013

  Actual Average Record
Temperature  
Mean Temperature 44 °F -  
Max Temperature 57 °F 46 °F 72 °F (1959)
Min Temperature 30 °F 28 °F -5 °F (1985)
Degree Days  
Heating Degree Days 22    
Moisture  
Dew Point 33 °F    
Average Humidity 66    
Maximum Humidity 100    
Minimum Humidity 37    
Precipitation  
Precipitation 0.00 in - - ()
Sea Level Pressure  
Sea Level Pressure 29.98 in    
Wind  
Wind Speed 3 mph (SSW)    
Max Wind Speed 14 mph    
Max Gust Speed 28 mph    
Visibility 10 miles    
Events      
Averages and records for this station are not official NWS values.
T = Trace of Precipitation, MM = Missing Value Source: NWS Daily Summary

Daily Weather History Graph

Daily Weather History Graph

Search for Another Location

Airport:

Trip Planner

Search our weather history database for the weather conditions in past years. The results will help you decide how hot, cold, wet, or windy it might be!

Date:

Astronomy

Jan. 21, 2013 Rise Set
Actual Time 7:15 AM EST 5:20 PM EST
Civil Twilight 6:47 AM EST 5:48 PM EST
Nautical Twilight 6:16 AM EST 6:19 PM EST
Astronomical Twilight 5:45 AM EST 6:50 PM EST
Moon 12:59 PM EST (1/21) 2:41 AM EST (1/21)
Length of Visible Light 11h 00m
Length of Day
10h 05m
Waxing Gibbous, 75% of the Moon is Illuminated
Jan 21
Waxing Gibbous
Jan 26
Full
Feb 3
Last Quarter
Feb 10
New
Feb 17
First Quarter

Hourly Weather History & Observations

Time (EST) Temp. Windchill Dew Point Humidity Pressure Visibility Wind Dir Wind Speed Gust Speed Precip Events Conditions
12:15 AM 39.2 °F - 33.8 °F 81% 30.07 in 10.0 mi Calm Calm - N/A   Clear
12:35 AM 37.4 °F - 33.8 °F 87% 30.07 in 10.0 mi Calm Calm - N/A   Clear
12:55 AM 37.4 °F - 33.8 °F 87% 30.07 in 10.0 mi Calm Calm - N/A   Clear
1:15 AM 37.4 °F - 33.8 °F 87% 30.08 in 10.0 mi Calm Calm - N/A   Clear
1:35 AM 35.6 °F - 33.8 °F 93% 30.09 in 10.0 mi Calm Calm - N/A   Clear
1:55 AM 35.6 °F - 32.0 °F 87% 30.09 in 10.0 mi Calm Calm - N/A   Clear
2:15 AM 33.8 °F - 32.0 °F 93% 30.09 in 10.0 mi Calm Calm - N/A   Clear
2:35 AM 33.8 °F - 32.0 °F 93% 30.09 in 10.0 mi Calm Calm - N/A   Clear
2:55 AM 33.8 °F - 32.0 °F 93% 30.09 in 10.0 mi Calm Calm - N/A   Clear
3:15 AM 33.8 °F - 32.0 °F 93% 30.09 in 10.0 mi Calm Calm - N/A   Clear
3:35 AM 33.8 °F - 30.2 °F 87% 30.09 in 10.0 mi Calm Calm - N/A   Clear
3:55 AM 33.8 °F - 30.2 °F 87% 30.08 in 10.0 mi Calm Calm - N/A   Clear
4:15 AM 32.0 °F - 30.2 °F 93% 30.08 in 10.0 mi Calm Calm - N/A   Clear
4:35 AM 32.0 °F - 30.2 °F 93% 30.08 in 10.0 mi Calm Calm - N/A   Clear
4:55 AM 32.0 °F - 30.2 °F 93% 30.08 in 10.0 mi Calm Calm - N/A   Clear
5:15 AM 32.0 °F - 30.2 °F 93% 30.09 in 10.0 mi Calm Calm - N/A   Clear
5:35 AM 30.2 °F - 28.4 °F 93% 30.09 in 10.0 mi Calm Calm - N/A   Clear
5:55 AM 30.2 °F - 28.4 °F 93% 30.09 in 10.0 mi Calm Calm - N/A   Clear
6:15 AM 30.2 °F - 30.2 °F 100% 30.08 in 7.0 mi Calm Calm - N/A   Clear
6:55 AM 30.2 °F - 30.2 °F 100% 30.08 in 10.0 mi Calm Calm - N/A   Clear
7:15 AM 30.2 °F - 28.4 °F 93% 30.08 in 10.0 mi Calm Calm - N/A   Clear
7:35 AM 30.2 °F - 28.4 °F 93% 30.08 in 10.0 mi Calm Calm - N/A   Clear
7:55 AM 32.0 °F - 30.2 °F 93% 30.08 in 10.0 mi Calm Calm - N/A   Clear
8:15 AM 33.8 °F - 30.2 °F 87% 30.08 in 10.0 mi Calm Calm - N/A   Clear
8:35 AM 35.6 °F - 33.8 °F 93% 30.09 in 10.0 mi Calm Calm - N/A   Clear
8:55 AM 41.0 °F - 32.0 °F 70% 30.09 in 10.0 mi Calm Calm - N/A   Clear
9:15 AM 42.8 °F - 32.0 °F 66% 30.09 in 10.0 mi Calm Calm - N/A   Clear
9:35 AM 44.6 °F 41.4 °F 32.0 °F 61% 30.10 in 10.0 mi East 5.8 mph - N/A   Clear
9:55 AM 46.4 °F 42.4 °F 33.8 °F 62% 30.10 in 10.0 mi East 8.1 mph - N/A   Clear
10:15 AM 46.4 °F 42.9 °F 35.6 °F 66% 30.09 in 10.0 mi East 6.9 mph - N/A   Clear
10:35 AM 48.2 °F - 35.6 °F 62% 30.08 in 10.0 mi SE 6.9 mph - N/A   Clear
10:55 AM 50.0 °F - 37.4 °F 62% 30.07 in 10.0 mi SE 8.1 mph - N/A   Clear
11:15 AM 50.0 °F - 35.6 °F 58% 30.06 in 10.0 mi SE 10.4 mph - N/A   Clear
11:35 AM 51.8 °F - 37.4 °F 58% 30.04 in 10.0 mi SE 10.4 mph - N/A   Clear
11:55 AM 53.6 °F - 37.4 °F 54% 30.02 in 10.0 mi SSE 8.1 mph - N/A   Clear
12:15 PM 53.6 °F - 37.4 °F 54% 29.99 in 10.0 mi SSE 11.5 mph 17.3 mph N/A   Clear
12:35 PM 53.6 °F - 35.6 °F 51% 29.98 in 10.0 mi South 5.8 mph - N/A   Clear
12:55 PM 55.4 °F - 37.4 °F 51% 29.97 in 10.0 mi SE 5.8 mph - N/A   Clear
1:15 PM 55.4 °F - 33.8 °F 44% 29.96 in 10.0 mi South 5.8 mph - N/A   Mostly Cloudy
1:35 PM 55.4 °F - 35.6 °F 47% 29.94 in 10.0 mi South 5.8 mph - N/A   Mostly Cloudy
1:55 PM 57.2 °F - 35.6 °F 44% 29.93 in 10.0 mi SSW 9.2 mph - N/A   Scattered Clouds
2:15 PM 57.2 °F - 35.6 °F 44% 29.92 in 10.0 mi SSW 8.1 mph - N/A   Clear
2:35 PM 57.2 °F - 35.6 °F 44% 29.90 in 10.0 mi South 9.2 mph - N/A   Clear
2:55 PM 57.2 °F - 35.6 °F 44% 29.90 in 10.0 mi South 9.2 mph - N/A   Clear
3:15 PM 57.2 °F - 33.8 °F 41% 29.88 in 10.0 mi SSW 10.4 mph 16.1 mph N/A   Clear
3:35 PM 57.2 °F - 35.6 °F 44% 29.87 in 10.0 mi South 11.5 mph - N/A   Clear
3:55 PM 57.2 °F - 33.8 °F 41% 29.86 in 10.0 mi SSW 9.2 mph - N/A   Clear
4:15 PM 57.2 °F - 35.6 °F 44% 29.85 in 10.0 mi SSW 9.2 mph - N/A   Clear
4:35 PM 55.4 °F - 37.4 °F 51% 29.85 in 10.0 mi South 8.1 mph - N/A   Clear
4:55 PM 55.4 °F - 39.2 °F 54% 29.84 in 10.0 mi South 5.8 mph - N/A   Clear
5:15 PM 53.6 °F - 37.4 °F 54% 29.83 in 10.0 mi South 5.8 mph - N/A   Clear
5:55 PM 48.2 °F - 35.6 °F 62% 29.82 in 10.0 mi South 5.8 mph - N/A   Clear
6:15 PM 48.2 °F - 35.6 °F 62% 29.83 in 10.0 mi SSW 4.6 mph - N/A   Clear
6:35 PM 48.2 °F - 35.6 °F 62% 29.84 in 10.0 mi SSW 4.6 mph - N/A   Clear
6:55 PM 48.2 °F - 35.6 °F 62% 29.84 in 10.0 mi SSW 5.8 mph - N/A   Clear
7:15 PM 48.2 °F - 35.6 °F 62% 29.83 in 10.0 mi SSW 5.8 mph - N/A   Clear
7:35 PM 48.2 °F - 35.6 °F 62% 29.83 in 10.0 mi SSW 8.1 mph - N/A   Clear
7:55 PM 48.2 °F - 35.6 °F 62% 29.83 in 10.0 mi SSW 8.1 mph - N/A   Clear
8:15 PM 50.0 °F - 33.8 °F 54% 29.83 in 10.0 mi SW 8.1 mph - N/A   Clear
8:35 PM 51.8 °F - 33.8 °F 50% 29.84 in 10.0 mi SW 8.1 mph - N/A   Clear
8:55 PM 50.0 °F - 33.8 °F 54% 29.84 in 10.0 mi WSW 8.1 mph - N/A   Clear
9:15 PM 50.0 °F - 33.8 °F 54% 29.87 in 10.0 mi West 10.4 mph - N/A   Clear
9:35 PM 50.0 °F - 30.2 °F 47% 29.88 in 10.0 mi West 12.7 mph 20.7 mph N/A   Clear
9:55 PM 50.0 °F - 24.8 °F 37% 29.89 in 10.0 mi West 13.8 mph 27.6 mph N/A   Clear
10:15 PM 48.2 °F - 24.8 °F 40% 29.89 in 10.0 mi West 8.1 mph 18.4 mph N/A   Clear
10:35 PM 46.4 °F 42.9 °F 24.8 °F 43% 29.89 in 10.0 mi West 6.9 mph - N/A   Clear
10:55 PM 46.4 °F 42.9 °F 23.0 °F 40% 29.90 in 10.0 mi West 6.9 mph - N/A   Clear
11:15 PM 46.4 °F 42.4 °F 24.8 °F 43% 29.91 in 10.0 mi West 8.1 mph - N/A   Clear
11:35 PM 44.6 °F 40.2 °F 23.0 °F 43% 29.91 in 10.0 mi West 8.1 mph - N/A   Clear
11:55 PM 44.6 °F 40.7 °F 23.0 °F 43% 29.92 in 10.0 mi West 6.9 mph - N/A   Clear